Year,Month,Day,Hour,Minute,Value (Times are PST for temperature in C)
2023,10,27,00,00,1.20
2023,10,27,00,01,1.20
2023,10,27,00,02,1.20
2023,10,27,00,03,1.20
2023,10,27,00,04,1.20
2023,10,27,00,05,1.20
2023,10,27,00,06,1.20
2023,10,27,00,07,1.20
2023,10,27,00,08,1.20
2023,10,27,00,09,1.20
2023,10,27,00,10,1.20
2023,10,27,00,11,1.20
2023,10,27,00,12,1.20
2023,10,27,00,13,1.20
2023,10,27,00,14,1.20
2023,10,27,00,15,1.20
2023,10,27,00,16,1.20
2023,10,27,00,17,1.20
2023,10,27,00,18,1.20
2023,10,27,00,19,1.20
2023,10,27,00,20,1.20
2023,10,27,00,21,1.20
2023,10,27,00,22,1.20
2023,10,27,00,23,1.20
2023,10,27,00,24,1.10
2023,10,27,00,25,1.10
2023,10,27,00,26,1.10
2023,10,27,00,27,1.10
2023,10,27,00,28,1.10
2023,10,27,00,29,1.10
2023,10,27,00,30,1.10
2023,10,27,00,31,1.10
2023,10,27,00,32,1.10
2023,10,27,00,33,1.10
2023,10,27,00,34,1.10
2023,10,27,00,35,1.10
2023,10,27,00,36,1.10
2023,10,27,00,37,1.00
2023,10,27,00,38,1.10
2023,10,27,00,39,1.00
2023,10,27,00,40,1.00
2023,10,27,00,41,1.00
2023,10,27,00,42,1.00
2023,10,27,00,43,1.00
2023,10,27,00,44,1.00
2023,10,27,00,45,1.00
2023,10,27,00,46,1.10
2023,10,27,00,47,1.10
2023,10,27,00,48,1.10
2023,10,27,00,49,1.10
2023,10,27,00,50,1.10
2023,10,27,00,51,1.10
2023,10,27,00,52,1.10
2023,10,27,00,53,1.10
2023,10,27,00,54,1.10
2023,10,27,00,55,1.10
2023,10,27,00,56,1.10
2023,10,27,00,57,1.10
2023,10,27,00,58,1.10
2023,10,27,00,59,1.10
2023,10,27,01,00,1.10
2023,10,27,01,01,1.10
2023,10,27,01,02,1.20
2023,10,27,01,03,1.20
2023,10,27,01,04,1.20
2023,10,27,01,05,1.20
2023,10,27,01,06,1.30
2023,10,27,01,07,1.30
2023,10,27,01,08,1.30
2023,10,27,01,09,1.30
2023,10,27,01,10,1.30
2023,10,27,01,11,1.30
2023,10,27,01,12,1.30
2023,10,27,01,13,1.30
2023,10,27,01,14,1.30
2023,10,27,01,15,1.30
2023,10,27,01,16,1.30
2023,10,27,01,17,1.30
2023,10,27,01,18,1.30
2023,10,27,01,19,1.30
2023,10,27,01,20,1.30
2023,10,27,01,21,1.30
2023,10,27,01,22,1.30
2023,10,27,01,23,1.30
2023,10,27,01,24,1.30
2023,10,27,01,25,1.30
2023,10,27,01,26,1.30
2023,10,27,01,27,1.30
2023,10,27,01,28,1.30
2023,10,27,01,29,1.30
2023,10,27,01,30,1.20
2023,10,27,01,31,1.20
2023,10,27,01,32,1.20
2023,10,27,01,33,1.20
2023,10,27,01,34,1.10
2023,10,27,01,35,1.10
2023,10,27,01,36,1.10
2023,10,27,01,37,1.10
2023,10,27,01,38,1.00
2023,10,27,01,39,1.00
2023,10,27,01,40,1.00
2023,10,27,01,41,1.00
2023,10,27,01,42,0.90
2023,10,27,01,43,0.90
2023,10,27,01,44,0.90
2023,10,27,01,45,0.90
2023,10,27,01,46,0.80
2023,10,27,01,47,0.80
2023,10,27,01,48,0.80
2023,10,27,01,49,0.80
2023,10,27,01,50,0.80
2023,10,27,01,51,0.80
2023,10,27,01,52,0.80
2023,10,27,01,53,0.80
2023,10,27,01,54,0.80
2023,10,27,01,55,0.80
2023,10,27,01,56,0.80
2023,10,27,01,57,0.80
2023,10,27,01,58,0.80
2023,10,27,01,59,0.80
2023,10,27,02,00,0.70
2023,10,27,02,01,0.70
2023,10,27,02,02,0.70
2023,10,27,02,03,0.70
2023,10,27,02,04,0.70
2023,10,27,02,05,0.60
2023,10,27,02,06,0.60
2023,10,27,02,07,0.60
2023,10,27,02,08,0.60
2023,10,27,02,09,0.50
2023,10,27,02,10,0.50
2023,10,27,02,11,0.50
2023,10,27,02,12,0.50
2023,10,27,02,13,0.40
2023,10,27,02,14,0.40
2023,10,27,02,15,0.40
2023,10,27,02,16,0.40
2023,10,27,02,17,0.40
2023,10,27,02,18,0.40
2023,10,27,02,19,0.30
2023,10,27,02,20,0.30
2023,10,27,02,21,0.30
2023,10,27,02,22,0.30
2023,10,27,02,23,0.20
2023,10,27,02,24,0.20
2023,10,27,02,25,0.20
2023,10,27,02,26,0.20
2023,10,27,02,27,0.20
2023,10,27,02,28,0.10
2023,10,27,02,29,0.10
2023,10,27,02,30,0.10
2023,10,27,02,31,0.10
2023,10,27,02,32,0.10
2023,10,27,02,33,0.10
2023,10,27,02,34,0.10
2023,10,27,02,35,0.10
2023,10,27,02,36,0.10
2023,10,27,02,37,0.10
2023,10,27,02,38,0.10
2023,10,27,02,39,0.00
2023,10,27,02,40,-0.10
2023,10,27,02,41,-0.10
2023,10,27,02,42,-0.10
2023,10,27,02,43,-0.10
2023,10,27,02,44,-0.10
2023,10,27,02,45,-0.10
2023,10,27,02,46,-0.10
2023,10,27,02,47,-0.10
2023,10,27,02,48,-0.10
2023,10,27,02,49,-0.10
2023,10,27,02,50,-0.10
2023,10,27,02,51,-0.10
2023,10,27,02,52,-0.10
2023,10,27,02,53,-0.10
2023,10,27,02,54,-0.10
2023,10,27,02,55,-0.10
2023,10,27,02,56,-0.10
2023,10,27,02,57,-0.10
2023,10,27,02,58,-0.10
2023,10,27,02,59,-0.10
2023,10,27,03,00,-0.10
2023,10,27,03,01,-0.10
2023,10,27,03,02,-0.10
2023,10,27,03,03,-0.10
2023,10,27,03,04,-0.20
2023,10,27,03,05,-0.20
2023,10,27,03,06,-0.20
2023,10,27,03,07,-0.20
2023,10,27,03,08,-0.20
2023,10,27,03,09,-0.20
2023,10,27,03,10,-0.20
2023,10,27,03,11,-0.20
2023,10,27,03,12,-0.20
2023,10,27,03,13,-0.20
2023,10,27,03,14,-0.20
2023,10,27,03,15,-0.20
2023,10,27,03,16,-0.30
2023,10,27,03,17,-0.30
2023,10,27,03,18,-0.30
2023,10,27,03,19,-0.30
2023,10,27,03,20,-0.30
2023,10,27,03,21,-0.30
2023,10,27,03,22,-0.30
2023,10,27,03,23,-0.30
2023,10,27,03,24,-0.30
2023,10,27,03,25,-0.20
2023,10,27,03,26,-0.20
2023,10,27,03,27,-0.20
2023,10,27,03,28,-0.10
2023,10,27,03,29,-0.10
2023,10,27,03,30,-0.10
2023,10,27,03,31,-0.10
2023,10,27,03,32,-0.10
2023,10,27,03,33,0.00
2023,10,27,03,34,0.10
2023,10,27,03,35,0.10
2023,10,27,03,36,0.10
2023,10,27,03,37,0.10
2023,10,27,03,38,0.10
2023,10,27,03,39,0.10
2023,10,27,03,40,0.10
2023,10,27,03,41,0.10
2023,10,27,03,42,0.10
2023,10,27,03,43,0.10
2023,10,27,03,44,0.10
2023,10,27,03,45,0.10
2023,10,27,03,46,0.10
2023,10,27,03,47,0.10
2023,10,27,03,48,0.10
2023,10,27,03,49,0.00
2023,10,27,03,50,-0.10
2023,10,27,03,51,-0.10
2023,10,27,03,52,-0.10
2023,10,27,03,53,-0.10
2023,10,27,03,54,-0.10
2023,10,27,03,55,-0.10
2023,10,27,03,56,-0.10
2023,10,27,03,57,-0.10
2023,10,27,03,58,-0.10
2023,10,27,03,59,-0.10
2023,10,27,04,00,-0.10
2023,10,27,04,01,-0.10
2023,10,27,04,02,-0.20
2023,10,27,04,03,-0.20
2023,10,27,04,04,-0.20
2023,10,27,04,05,-0.20
2023,10,27,04,06,-0.30
2023,10,27,04,07,-0.30
2023,10,27,04,08,-0.30
2023,10,27,04,09,-0.30
2023,10,27,04,10,-0.40
2023,10,27,04,11,-0.40
2023,10,27,04,12,-0.40
2023,10,27,04,13,-0.40
2023,10,27,04,14,-0.40
2023,10,27,04,15,-0.50
2023,10,27,04,16,-0.60
2023,10,27,04,17,-0.60
2023,10,27,04,18,-0.60
2023,10,27,04,19,-0.60
2023,10,27,04,20,-0.60
2023,10,27,04,21,-0.60
2023,10,27,04,22,-0.70
2023,10,27,04,23,-0.70
2023,10,27,04,24,-0.70
2023,10,27,04,25,-0.70
2023,10,27,04,26,-0.70
2023,10,27,04,27,-0.70
2023,10,27,04,28,-0.70
2023,10,27,04,29,-0.70
2023,10,27,04,30,-0.80
2023,10,27,04,31,-0.80
2023,10,27,04,32,-0.80
2023,10,27,04,33,-0.80
2023,10,27,04,34,-0.80
2023,10,27,04,35,-0.80
2023,10,27,04,36,-0.80
2023,10,27,04,37,-0.90
2023,10,27,04,38,-0.90
2023,10,27,04,39,-0.90
2023,10,27,04,40,-0.90
2023,10,27,04,41,-0.90
2023,10,27,04,42,-0.90
2023,10,27,04,43,-0.90
2023,10,27,04,44,-0.90
2023,10,27,04,45,-0.90
2023,10,27,04,46,-0.90
2023,10,27,04,47,-0.90
2023,10,27,04,48,-0.90
2023,10,27,04,49,-0.90
2023,10,27,04,50,-0.90
2023,10,27,04,51,-0.90
2023,10,27,04,52,-0.90
2023,10,27,04,53,-0.90
2023,10,27,04,54,-0.90
2023,10,27,04,55,-0.90
2023,10,27,04,56,-0.90
2023,10,27,04,57,-0.90
2023,10,27,04,58,-0.90
2023,10,27,04,59,-0.90
2023,10,27,05,00,-0.90
2023,10,27,05,01,-0.90
2023,10,27,05,02,-0.90
2023,10,27,05,03,-0.90
2023,10,27,05,04,-0.90
2023,10,27,05,05,-0.90
2023,10,27,05,06,-0.90
2023,10,27,05,07,-0.90
2023,10,27,05,08,-0.90
2023,10,27,05,09,-0.80
2023,10,27,05,10,-0.90
2023,10,27,05,11,-0.90
2023,10,27,05,12,-0.90
2023,10,27,05,13,-0.90
2023,10,27,05,14,-0.80
2023,10,27,05,15,-0.80
2023,10,27,05,16,-0.80
2023,10,27,05,17,-0.70
2023,10,27,05,18,-0.70
2023,10,27,05,19,-0.70
2023,10,27,05,20,-0.60
2023,10,27,05,21,-0.60
2023,10,27,05,22,-0.60
2023,10,27,05,23,-0.60
2023,10,27,05,24,-0.50
2023,10,27,05,25,-0.40
2023,10,27,05,26,-0.40
2023,10,27,05,27,-0.40
2023,10,27,05,28,-0.40
2023,10,27,05,29,-0.40
2023,10,27,05,30,-0.40
2023,10,27,05,31,-0.40
2023,10,27,05,32,-0.40
2023,10,27,05,33,-0.40
2023,10,27,05,34,-0.40
2023,10,27,05,35,-0.40
2023,10,27,05,36,-0.40
2023,10,27,05,37,-0.40
2023,10,27,05,38,-0.40
2023,10,27,05,39,-0.40
2023,10,27,05,40,-0.50
2023,10,27,05,41,-0.60
2023,10,27,05,42,-0.60
2023,10,27,05,43,-0.60
2023,10,27,05,44,-0.60
2023,10,27,05,45,-0.60
2023,10,27,05,46,-0.60
2023,10,27,05,47,-0.60
2023,10,27,05,48,-0.60
2023,10,27,05,49,-0.60
2023,10,27,05,50,-0.60
2023,10,27,05,51,-0.60
2023,10,27,05,52,-0.60
2023,10,27,05,53,-0.60
2023,10,27,05,54,-0.60
2023,10,27,05,55,-0.60
2023,10,27,05,56,-0.60
2023,10,27,05,57,-0.60
2023,10,27,05,58,-0.60
2023,10,27,05,59,-0.60
2023,10,27,06,00,-0.60
2023,10,27,06,01,-0.60
2023,10,27,06,02,-0.60
2023,10,27,06,03,-0.60
2023,10,27,06,04,-0.60
2023,10,27,06,05,-0.60
2023,10,27,06,06,-0.60
2023,10,27,06,07,-0.60
2023,10,27,06,08,-0.60
2023,10,27,06,09,-0.60
2023,10,27,06,10,-0.60
2023,10,27,06,11,-0.60
2023,10,27,06,12,-0.60
2023,10,27,06,13,-0.60
2023,10,27,06,14,-0.60
2023,10,27,06,15,-0.60
2023,10,27,06,16,-0.60
2023,10,27,06,17,-0.60
2023,10,27,06,18,-0.60
2023,10,27,06,19,-0.60
2023,10,27,06,20,-0.60
2023,10,27,06,21,-0.60
2023,10,27,06,22,-0.60
2023,10,27,06,23,-0.60
2023,10,27,06,24,-0.60
2023,10,27,06,25,-0.60
2023,10,27,06,26,-0.60
2023,10,27,06,27,-0.60
2023,10,27,06,28,-0.60
2023,10,27,06,29,-0.60
2023,10,27,06,30,-0.60
2023,10,27,06,31,-0.60
2023,10,27,06,32,-0.60
2023,10,27,06,33,-0.60
2023,10,27,06,34,-0.60
2023,10,27,06,35,-0.60
2023,10,27,06,36,-0.60
2023,10,27,06,37,-0.70
2023,10,27,06,38,-0.70
2023,10,27,06,39,-0.70
2023,10,27,06,40,-0.70
2023,10,27,06,41,-0.70
2023,10,27,06,42,-0.70
2023,10,27,06,43,-0.70
2023,10,27,06,44,-0.70
2023,10,27,06,45,-0.70
2023,10,27,06,46,-0.80
2023,10,27,06,47,-0.80
2023,10,27,06,48,-0.80
2023,10,27,06,49,-0.80
2023,10,27,06,50,-0.80
2023,10,27,06,51,-0.80
2023,10,27,06,52,-0.80
2023,10,27,06,53,-0.80
2023,10,27,06,54,-0.90
2023,10,27,06,55,-0.90
2023,10,27,06,56,-0.90
2023,10,27,06,57,-0.90
2023,10,27,06,58,-0.90
2023,10,27,06,59,-0.90
2023,10,27,07,00,-0.90
2023,10,27,07,01,-0.90
2023,10,27,07,02,-0.90
2023,10,27,07,03,-0.90
2023,10,27,07,04,-0.90
2023,10,27,07,05,-0.90
2023,10,27,07,06,-0.90
2023,10,27,07,07,-0.90
2023,10,27,07,08,-0.90
2023,10,27,07,09,-0.90
2023,10,27,07,10,-0.90
2023,10,27,07,11,-0.90
2023,10,27,07,12,-0.90
2023,10,27,07,13,-0.90
2023,10,27,07,14,-0.90
2023,10,27,07,15,-0.90
2023,10,27,07,16,-1.00
2023,10,27,07,17,-1.10
2023,10,27,07,18,-1.10
2023,10,27,07,19,-1.10
2023,10,27,07,20,-1.10
2023,10,27,07,21,-1.10
2023,10,27,07,22,-1.10
2023,10,27,07,23,-1.10
2023,10,27,07,24,-1.10
2023,10,27,07,25,-1.10
2023,10,27,07,26,-1.10
2023,10,27,07,27,-1.10
2023,10,27,07,28,-1.10
2023,10,27,07,29,-1.10
2023,10,27,07,30,-1.10
2023,10,27,07,31,-1.10
2023,10,27,07,32,-1.10
2023,10,27,07,33,-1.10
2023,10,27,07,34,-1.10
2023,10,27,07,35,-1.10
2023,10,27,07,36,-1.10
2023,10,27,07,37,-1.10
2023,10,27,07,38,-1.10
2023,10,27,07,39,-1.10
2023,10,27,07,40,-1.10
2023,10,27,07,41,-1.10
2023,10,27,07,42,-1.10
2023,10,27,07,43,-1.10
2023,10,27,07,44,-1.10
2023,10,27,07,45,-1.10
2023,10,27,07,46,-1.10
2023,10,27,07,47,-1.10
2023,10,27,07,48,-1.10
2023,10,27,07,49,-1.10
2023,10,27,07,50,-1.10
2023,10,27,07,51,-1.10
2023,10,27,07,52,-1.10
2023,10,27,07,53,-1.10
2023,10,27,07,54,-1.10
2023,10,27,07,55,-1.10
2023,10,27,07,56,-1.10
2023,10,27,07,57,-1.10
2023,10,27,07,58,-1.10
2023,10,27,07,59,-1.10
2023,10,27,08,00,-1.10
2023,10,27,08,01,-1.10
2023,10,27,08,02,-1.10
2023,10,27,08,03,-1.10
2023,10,27,08,04,-1.10
2023,10,27,08,05,-1.10
2023,10,27,08,06,-1.10
2023,10,27,08,07,-1.10
2023,10,27,08,08,-1.10
2023,10,27,08,09,-1.10
2023,10,27,08,10,-1.10
2023,10,27,08,11,-1.10
2023,10,27,08,12,-1.10
2023,10,27,08,13,-1.10
2023,10,27,08,14,-1.10
2023,10,27,08,15,-1.10
2023,10,27,08,16,-1.10
2023,10,27,08,17,-1.10
2023,10,27,08,18,-1.10
2023,10,27,08,19,-1.10
2023,10,27,08,20,-1.10
2023,10,27,08,21,-1.10
2023,10,27,08,22,-1.10
2023,10,27,08,23,-1.10
2023,10,27,08,24,-1.10
2023,10,27,08,25,-1.10
2023,10,27,08,26,-1.10
2023,10,27,08,27,-1.10
2023,10,27,08,28,-1.10
2023,10,27,08,29,-1.10
2023,10,27,08,30,-1.10
2023,10,27,08,31,-1.10
2023,10,27,08,32,-1.10
2023,10,27,08,33,-1.10
2023,10,27,08,34,-1.10
2023,10,27,08,35,-1.10
2023,10,27,08,36,-1.10
2023,10,27,08,37,-1.10
2023,10,27,08,38,-1.10
2023,10,27,08,39,-1.10
2023,10,27,08,40,-1.10
2023,10,27,08,41,-1.10
2023,10,27,08,42,-1.10
2023,10,27,08,43,-1.10
2023,10,27,08,44,-1.10
2023,10,27,08,45,-1.10
2023,10,27,08,46,-1.10
2023,10,27,08,47,-1.10
2023,10,27,08,48,-1.10
2023,10,27,08,49,-1.00
2023,10,27,08,50,-0.90
2023,10,27,08,51,-0.90
2023,10,27,08,52,-0.90
2023,10,27,08,53,-0.90
2023,10,27,08,54,-0.90
2023,10,27,08,55,-0.90
2023,10,27,08,56,-0.90
2023,10,27,08,57,-0.90
2023,10,27,08,58,-0.90
2023,10,27,08,59,-0.90
2023,10,27,09,00,-0.90
2023,10,27,09,01,-0.90
2023,10,27,09,02,-0.90
2023,10,27,09,03,-0.90
2023,10,27,09,04,-0.90
2023,10,27,09,05,-0.80
2023,10,27,09,06,-0.80
2023,10,27,09,07,-0.80
2023,10,27,09,08,-0.70
2023,10,27,09,09,-0.70
2023,10,27,09,10,-0.70
2023,10,27,09,11,-0.70
2023,10,27,09,12,-0.70
2023,10,27,09,13,-0.70
2023,10,27,09,14,-0.60
2023,10,27,09,15,-0.60
2023,10,27,09,16,-0.60
2023,10,27,09,17,-0.60
2023,10,27,09,18,-0.60
2023,10,27,09,19,-0.60
2023,10,27,09,20,-0.60
2023,10,27,09,21,-0.60
2023,10,27,09,22,-0.60
2023,10,27,09,23,-0.60
2023,10,27,09,24,-0.60
2023,10,27,09,25,-0.50
2023,10,27,09,26,-0.40
2023,10,27,09,27,-0.40
2023,10,27,09,28,-0.40
2023,10,27,09,29,-0.30
2023,10,27,09,30,-0.20
2023,10,27,09,31,-0.20
2023,10,27,09,32,-0.10
2023,10,27,09,33,0.00
2023,10,27,09,34,0.10
2023,10,27,09,35,0.10
2023,10,27,09,36,0.20
2023,10,27,09,37,0.30
2023,10,27,09,38,0.30
2023,10,27,09,39,0.40
2023,10,27,09,40,0.40
2023,10,27,09,41,0.40
2023,10,27,09,42,0.40
2023,10,27,09,43,0.40
2023,10,27,09,44,0.40
2023,10,27,09,45,0.40
2023,10,27,09,46,0.40
2023,10,27,09,47,0.40
2023,10,27,09,48,0.40
2023,10,27,09,49,0.40
2023,10,27,09,50,0.50
2023,10,27,09,51,0.50
2023,10,27,09,52,0.50
2023,10,27,09,53,0.50
2023,10,27,09,54,0.50
2023,10,27,09,55,0.60
2023,10,27,09,56,0.60
2023,10,27,09,57,0.70
2023,10,27,09,58,0.80
2023,10,27,09,59,0.80
2023,10,27,10,00,0.90
2023,10,27,10,01,1.00
2023,10,27,10,02,1.10
2023,10,27,10,03,1.10
2023,10,27,10,04,1.20
2023,10,27,10,05,1.20
2023,10,27,10,06,1.30
2023,10,27,10,07,1.30
2023,10,27,10,08,1.30
2023,10,27,10,09,1.40
2023,10,27,10,10,1.50
2023,10,27,10,11,1.60
2023,10,27,10,12,1.60
2023,10,27,10,13,1.70
2023,10,27,10,14,1.80
2023,10,27,10,15,2.00
2023,10,27,10,16,2.10
2023,10,27,10,17,2.10
2023,10,27,10,18,2.20
2023,10,27,10,19,2.30
2023,10,27,10,20,2.40
2023,10,27,10,21,2.50
2023,10,27,10,22,2.70
2023,10,27,10,23,2.80
2023,10,27,10,24,2.90
2023,10,27,10,25,3.00
2023,10,27,10,26,3.10
2023,10,27,10,27,3.10
2023,10,27,10,28,3.20
2023,10,27,10,29,3.20
2023,10,27,10,30,3.30
2023,10,27,10,31,3.30
2023,10,27,10,32,3.30
2023,10,27,10,33,3.30
2023,10,27,10,34,3.30
2023,10,27,10,35,3.30
2023,10,27,10,36,3.40
2023,10,27,10,37,3.40
2023,10,27,10,38,3.40
2023,10,27,10,39,3.40
2023,10,27,10,40,3.40
2023,10,27,10,41,3.40
2023,10,27,10,42,3.40
2023,10,27,10,43,3.50
2023,10,27,10,44,3.50
2023,10,27,10,45,3.70
2023,10,27,10,46,3.70
2023,10,27,10,47,3.80
2023,10,27,10,48,3.90
2023,10,27,10,49,4.00
2023,10,27,10,50,4.00
2023,10,27,10,51,4.10
2023,10,27,10,52,4.10
2023,10,27,10,53,4.20
2023,10,27,10,54,4.10
2023,10,27,10,55,4.10
2023,10,27,10,56,4.20
2023,10,27,10,57,4.20
2023,10,27,10,58,4.20
2023,10,27,10,59,4.20
2023,10,27,11,00,4.20
2023,10,27,11,01,4.20
2023,10,27,11,02,4.30
2023,10,27,11,03,4.30
2023,10,27,11,04,4.40
2023,10,27,11,05,4.50
2023,10,27,11,06,4.60
2023,10,27,11,07,4.60
2023,10,27,11,08,4.70
2023,10,27,11,09,4.70
2023,10,27,11,10,4.90
2023,10,27,11,11,4.90
2023,10,27,11,12,5.00
2023,10,27,11,13,5.10
2023,10,27,11,14,5.10
2023,10,27,11,15,5.20
2023,10,27,11,16,5.20
2023,10,27,11,17,5.30
2023,10,27,11,18,5.30
2023,10,27,11,19,5.40
2023,10,27,11,20,5.40
2023,10,27,11,21,5.50
2023,10,27,11,22,5.50
2023,10,27,11,23,5.50
2023,10,27,11,24,5.60
2023,10,27,11,25,5.60
2023,10,27,11,26,5.70
2023,10,27,11,27,5.70
2023,10,27,11,28,5.70
2023,10,27,11,29,5.70
2023,10,27,11,30,5.80
2023,10,27,11,31,5.90
2023,10,27,11,32,5.90
2023,10,27,11,33,5.90
2023,10,27,11,34,5.90
2023,10,27,11,35,6.00
2023,10,27,11,36,6.00
2023,10,27,11,37,6.00
2023,10,27,11,38,6.00
2023,10,27,11,39,6.10
2023,10,27,11,40,6.20
2023,10,27,11,41,6.20
2023,10,27,11,42,6.20
2023,10,27,11,43,6.20
2023,10,27,11,44,6.20
2023,10,27,11,45,6.20
2023,10,27,11,46,6.20
2023,10,27,11,47,6.30
2023,10,27,11,48,6.30
2023,10,27,11,49,6.30
2023,10,27,11,50,6.30
2023,10,27,11,51,6.30
2023,10,27,11,52,6.40
2023,10,27,11,53,6.40
2023,10,27,11,54,6.50
2023,10,27,11,55,6.60
2023,10,27,11,56,6.60
2023,10,27,11,57,6.60
2023,10,27,11,58,6.60
2023,10,27,11,59,6.60
2023,10,27,12,00,6.60
2023,10,27,12,01,6.70
2023,10,27,12,02,6.70
2023,10,27,12,03,6.70
2023,10,27,12,04,6.70
2023,10,27,12,05,6.80
2023,10,27,12,06,6.80
2023,10,27,12,07,6.70
2023,10,27,12,08,6.70
2023,10,27,12,09,6.70
2023,10,27,12,10,6.60
2023,10,27,12,11,6.70
2023,10,27,12,12,6.70
2023,10,27,12,13,6.70
2023,10,27,12,14,6.80
2023,10,27,12,15,6.80
2023,10,27,12,16,6.80
2023,10,27,12,17,6.90
2023,10,27,12,18,6.90
2023,10,27,12,19,6.90
2023,10,27,12,20,6.80
2023,10,27,12,21,6.80
2023,10,27,12,22,6.80
2023,10,27,12,23,6.80
2023,10,27,12,24,6.80
2023,10,27,12,25,6.80
2023,10,27,12,26,6.80
2023,10,27,12,27,6.80
2023,10,27,12,28,6.90
2023,10,27,12,29,6.90
2023,10,27,12,30,7.00
2023,10,27,12,31,7.00
2023,10,27,12,32,7.10
2023,10,27,12,33,7.20
2023,10,27,12,34,7.30
2023,10,27,12,35,7.30
2023,10,27,12,36,7.30
2023,10,27,12,37,7.30
2023,10,27,12,38,7.30
2023,10,27,12,39,7.30
2023,10,27,12,40,7.30
2023,10,27,12,41,7.30
2023,10,27,12,42,7.40
2023,10,27,12,43,7.40
2023,10,27,12,44,7.30
2023,10,27,12,45,7.40
2023,10,27,12,46,7.40
2023,10,27,12,47,7.40
2023,10,27,12,48,7.40
2023,10,27,12,49,7.40
2023,10,27,12,50,7.50
2023,10,27,12,51,7.50
2023,10,27,12,52,7.50
2023,10,27,12,53,7.60
2023,10,27,12,54,7.60
2023,10,27,12,55,7.70
2023,10,27,12,56,7.70
2023,10,27,12,57,7.80
2023,10,27,12,58,7.70
2023,10,27,12,59,7.80
2023,10,27,13,00,7.70
2023,10,27,13,01,7.70
2023,10,27,13,02,7.80
2023,10,27,13,03,7.80
2023,10,27,13,04,7.80
2023,10,27,13,05,7.80
2023,10,27,13,06,7.80
2023,10,27,13,07,7.80
2023,10,27,13,08,7.80
2023,10,27,13,09,7.80
2023,10,27,13,10,7.80
2023,10,27,13,11,7.80
2023,10,27,13,12,7.70
2023,10,27,13,13,7.70
2023,10,27,13,14,7.70
2023,10,27,13,15,7.80
2023,10,27,13,16,7.80
2023,10,27,13,17,7.70
2023,10,27,13,18,7.70
2023,10,27,13,19,7.70
2023,10,27,13,20,7.70
2023,10,27,13,21,7.70
2023,10,27,13,22,7.70
2023,10,27,13,23,7.70
2023,10,27,13,24,7.70
2023,10,27,13,25,7.70
2023,10,27,13,26,7.70
2023,10,27,13,27,7.60
2023,10,27,13,28,7.50
2023,10,27,13,29,7.50
2023,10,27,13,30,7.50
2023,10,27,13,31,7.40
2023,10,27,13,32,7.40
2023,10,27,13,33,7.40
2023,10,27,13,34,7.40
2023,10,27,13,35,7.50
2023,10,27,13,36,7.50
2023,10,27,13,37,7.50
2023,10,27,13,38,7.60
2023,10,27,13,39,7.70
2023,10,27,13,40,7.70
2023,10,27,13,41,7.80
2023,10,27,13,42,7.80
2023,10,27,13,43,7.80
2023,10,27,13,44,7.80
2023,10,27,13,45,7.80
2023,10,27,13,46,7.90
2023,10,27,13,47,7.90
2023,10,27,13,48,7.90
2023,10,27,13,49,7.90
2023,10,27,13,50,7.90
2023,10,27,13,51,8.00
2023,10,27,13,52,8.10
2023,10,27,13,53,8.10
2023,10,27,13,54,8.10
2023,10,27,13,55,8.10
2023,10,27,13,56,8.20
2023,10,27,13,57,8.10
2023,10,27,13,58,8.10
2023,10,27,13,59,8.00
2023,10,27,14,00,8.00
2023,10,27,14,01,7.90
2023,10,27,14,02,7.90
2023,10,27,14,03,7.80
2023,10,27,14,04,7.80
2023,10,27,14,05,7.70
2023,10,27,14,06,7.70
2023,10,27,14,07,7.70
2023,10,27,14,08,7.70
2023,10,27,14,09,7.60
2023,10,27,14,10,7.60
2023,10,27,14,11,7.60
2023,10,27,14,12,7.60
2023,10,27,14,13,7.60
2023,10,27,14,14,7.70
2023,10,27,14,15,7.70
2023,10,27,14,16,7.70
2023,10,27,14,17,7.80
2023,10,27,14,18,7.70
2023,10,27,14,19,7.70
2023,10,27,14,20,7.70
2023,10,27,14,21,7.70
2023,10,27,14,22,7.70
2023,10,27,14,23,7.70
2023,10,27,14,24,7.70
2023,10,27,14,25,7.60
2023,10,27,14,26,7.60
2023,10,27,14,27,7.50
2023,10,27,14,28,7.40
2023,10,27,14,29,7.30
2023,10,27,14,30,7.30
2023,10,27,14,31,7.30
2023,10,27,14,32,7.20
2023,10,27,14,33,7.10
2023,10,27,14,34,7.10
2023,10,27,14,35,7.00
2023,10,27,14,36,7.00
2023,10,27,14,37,6.90
2023,10,27,14,38,6.90
2023,10,27,14,39,6.80
2023,10,27,14,40,6.80
2023,10,27,14,41,6.80
2023,10,27,14,42,6.80
2023,10,27,14,43,6.80
2023,10,27,14,44,6.80
2023,10,27,14,45,6.80
2023,10,27,14,46,6.80
2023,10,27,14,47,6.80
2023,10,27,14,48,6.80
2023,10,27,14,49,6.80
2023,10,27,14,50,6.80
2023,10,27,14,51,6.80
2023,10,27,14,52,6.80
2023,10,27,14,53,6.80
2023,10,27,14,54,6.70
2023,10,27,14,55,6.70
2023,10,27,14,56,6.70
2023,10,27,14,57,6.60
2023,10,27,14,58,6.60
2023,10,27,14,59,6.60
2023,10,27,15,00,6.60
2023,10,27,15,01,6.50
2023,10,27,15,02,6.40
2023,10,27,15,03,6.40
2023,10,27,15,04,6.40
2023,10,27,15,05,6.30
2023,10,27,15,06,6.30
2023,10,27,15,07,6.30
2023,10,27,15,08,6.30
2023,10,27,15,09,6.30
2023,10,27,15,10,6.20
2023,10,27,15,11,6.20
2023,10,27,15,12,6.20
2023,10,27,15,13,6.20
2023,10,27,15,14,6.20
2023,10,27,15,15,6.20
2023,10,27,15,16,6.10
2023,10,27,15,17,6.10
2023,10,27,15,18,6.10
2023,10,27,15,19,6.10
2023,10,27,15,20,6.00
2023,10,27,15,21,6.10
2023,10,27,15,22,6.10
2023,10,27,15,23,6.10
2023,10,27,15,24,6.10
2023,10,27,15,25,6.10
2023,10,27,15,26,6.00
2023,10,27,15,27,6.00
2023,10,27,15,28,6.00
2023,10,27,15,29,6.00
2023,10,27,15,30,6.00
2023,10,27,15,31,6.00
2023,10,27,15,32,6.00
2023,10,27,15,33,5.90
2023,10,27,15,34,5.90
2023,10,27,15,35,5.90
2023,10,27,15,36,5.90
2023,10,27,15,37,5.80
2023,10,27,15,38,5.80
2023,10,27,15,39,5.80
2023,10,27,15,40,5.70
2023,10,27,15,41,5.70
2023,10,27,15,42,5.70
2023,10,27,15,43,5.70
2023,10,27,15,44,5.70
2023,10,27,15,45,5.70
2023,10,27,15,46,5.70
2023,10,27,15,47,5.70
2023,10,27,15,48,5.70
2023,10,27,15,49,5.70
2023,10,27,15,50,5.70
2023,10,27,15,51,5.70
2023,10,27,15,52,5.70
2023,10,27,15,53,5.70
2023,10,27,15,54,5.70
2023,10,27,15,55,5.70
2023,10,27,15,56,5.70
2023,10,27,15,57,5.70
2023,10,27,15,58,5.70
2023,10,27,15,59,5.60
2023,10,27,16,00,5.60
2023,10,27,16,01,5.60
2023,10,27,16,02,5.50
2023,10,27,16,03,5.50
2023,10,27,16,04,5.50
2023,10,27,16,05,5.50
2023,10,27,16,06,5.50
2023,10,27,16,07,5.40
2023,10,27,16,08,5.40
2023,10,27,16,09,5.40
2023,10,27,16,10,5.40
2023,10,27,16,11,5.40
2023,10,27,16,12,5.40
2023,10,27,16,13,5.40
2023,10,27,16,14,5.40
2023,10,27,16,15,5.30
2023,10,27,16,16,5.30
2023,10,27,16,17,5.30
2023,10,27,16,18,5.30
2023,10,27,16,19,5.30
2023,10,27,16,20,5.30
2023,10,27,16,21,5.30
2023,10,27,16,22,5.20
2023,10,27,16,23,5.20
2023,10,27,16,24,5.20
2023,10,27,16,25,5.20
2023,10,27,16,26,5.20
2023,10,27,16,27,5.20
2023,10,27,16,28,5.20
2023,10,27,16,29,5.20
2023,10,27,16,30,5.10
2023,10,27,16,31,5.10
2023,10,27,16,32,5.10
2023,10,27,16,33,5.10
2023,10,27,16,34,5.10
2023,10,27,16,35,5.10
2023,10,27,16,36,5.10
2023,10,27,16,37,5.10
2023,10,27,16,38,5.10
2023,10,27,16,39,5.10
2023,10,27,16,40,5.10
2023,10,27,16,41,5.10
2023,10,27,16,42,5.10
2023,10,27,16,43,5.10
2023,10,27,16,44,5.00
2023,10,27,16,45,4.90
2023,10,27,16,46,4.90
2023,10,27,16,47,4.90
2023,10,27,16,48,4.90
2023,10,27,16,49,4.90
2023,10,27,16,50,4.90
2023,10,27,16,51,4.90
2023,10,27,16,52,4.90
2023,10,27,16,53,4.90
2023,10,27,16,54,4.80
2023,10,27,16,55,4.80
2023,10,27,16,56,4.80
2023,10,27,16,57,4.80
2023,10,27,16,58,4.80
2023,10,27,16,59,4.70
2023,10,27,17,00,4.70
2023,10,27,17,01,4.70
2023,10,27,17,02,4.70
2023,10,27,17,03,4.60
2023,10,27,17,04,4.60
2023,10,27,17,05,4.60
2023,10,27,17,06,4.60
2023,10,27,17,07,4.60
2023,10,27,17,08,4.60
2023,10,27,17,09,4.50
2023,10,27,17,10,4.50
2023,10,27,17,11,4.40
2023,10,27,17,12,4.40
2023,10,27,17,13,4.40
2023,10,27,17,14,4.30
2023,10,27,17,15,4.20
2023,10,27,17,16,4.20
2023,10,27,17,17,4.20
2023,10,27,17,18,4.20
2023,10,27,17,19,4.10
2023,10,27,17,20,4.10
2023,10,27,17,21,4.00
2023,10,27,17,22,4.00
2023,10,27,17,23,4.00
2023,10,27,17,24,3.90
2023,10,27,17,25,3.90
2023,10,27,17,26,3.80
2023,10,27,17,27,3.80
2023,10,27,17,28,3.80
2023,10,27,17,29,3.80
2023,10,27,17,30,3.70
2023,10,27,17,31,3.70
2023,10,27,17,32,3.60
2023,10,27,17,33,3.60
2023,10,27,17,34,3.50
2023,10,27,17,35,3.50
2023,10,27,17,36,3.50
2023,10,27,17,37,3.40
2023,10,27,17,38,3.40
2023,10,27,17,39,3.40
2023,10,27,17,40,3.30
2023,10,27,17,41,3.30
2023,10,27,17,42,3.30
2023,10,27,17,43,3.30
2023,10,27,17,44,3.30
2023,10,27,17,45,3.20
2023,10,27,17,46,3.20
2023,10,27,17,47,3.20
2023,10,27,17,48,3.10